Location: Dumpton Point
(51.3500°N, 1.4433°E)
Time: 07:03:50
(UTC+00:00)

Envisat - Pass Details

Date: 10 December 2021
Orbit: 764 x 766 km, 98.2° (Epoch: 17 January)

Event Time Altitude Azimuth Distance (km) Brightness Sun altitude
Rises 05:06:22 0° 14° (NNE) 3,246 6.3 -23.9°
Reaches altitude 10° 05:08:41 10° 15° (NNE) 2,315 5.6 -23.6°
Maximum altitude 05:13:49 86° 104° (ESE) 774 2.9 -22.8°
Drops below altitude 10° 05:18:53 10° 195° (SSW) 2,297 5.4 -22.0°
Sets 05:21:11 0° 195° (SSW) 3,219 6.2 -21.7°
